"Pseudo-MPEC" for P10UIdQ

Created 2019 Dec 3 23:07:29 UT using Find_Orb

Click here for an explanation of pseudo-MPECs

 
 Astrometry: 
     P10UIdQ  C2019 11 26o/bg2Z`H:1eMB!9pFgu2.#LCZZAstrometryi9N:9w#redacted;F51
     P10UIdQ  C2019 11 26Ud55%^O6#W2Yp]Y]XkE5=hoR2.clickL!#O0BFGVO7Z,#mW`Lnr=F51
     P10UIdQ  C2019 11 26:-5\WAheren?!tA$#QBQ!R[lfforAexplanationpYx0_m)WajFCF51

Station data:
(F51) Pan-STARRS 1, Haleakala  (N20.707235 W156.255910)  US/Hawaii.
   Observers N. Primak, A. Schultz, S. Watters, J. Thiel, T. Goggia. Measurer
   PS1 Science Consortium. 1.8-m Ritchey-Chrétien + CCD.

Orbital elements:  P10UIdQ
   Perihelion 2019 Aug 25.592599 +/- 70.8 TT = 14:13:20 (JD 2458721.092599)
Epoch 2019 Nov 27.0 TT = JDT 2458814.5   Earth MOID: 0.0129   AutoNEOCP
M  96.46703128 +/- 80               (J2000 ecliptic)
n   1.03275576 +/- 0.543            Peri.  244.43950 +/- 90
a   0.96932846 +/- 0.34             Node    67.71822 +/- 31
e   0.1424975 +/- 0.266             Incl.    5.12143 +/- 25
P   0.95/348.58d           H 27.8   G  0.15   U 12.3  SR
q 0.83120154 +/- 0.193    Q 1.10745537 +/- 17
From 3 observations 2019 Nov. 26 (37.4 min); mean residual 0".15
Residuals in arcseconds: 
191126 F51  .15-  .01-    191126 F51  .30+  .02+    191126 F51  .15-  .01-    

Ephemerides (geocentric):
Date (UTC) HH   RA              Dec         delta   r     elong  mag " sig PA
---- -- -- --  -------------   -----------  ------ ------ -----  --- ---- ---
2019 12 03 23  03 45 19.558   +28 25 39.55  .03461 1.0194 166.4 21.3  46d   2
2019 12 04 00  03 45 03.876   +28 29 26.75  .03473 1.0195 166.3 21.3  46d   2
2019 12 04 01  03 44 48.288   +28 33 12.29  .03485 1.0196 166.2 21.4  46d   2
2019 12 04 02  03 44 32.790   +28 36 56.20  .03496 1.0196 166.1 21.4  46d   2
2019 12 04 03  03 44 17.384   +28 40 38.47  .03508 1.0197 166.0 21.4  46d   2
2019 12 04 04  03 44 02.069   +28 44 19.14  .03520 1.0198 165.9 21.4  46d   2
2019 12 04 05  03 43 46.843   +28 47 58.21  .03531 1.0199 165.8 21.4  46d   2
2019 12 04 06  03 43 31.706   +28 51 35.71  .03543 1.0200 165.6 21.4  46d   2
2019 12 04 07  03 43 16.658   +28 55 11.64  .03555 1.0201 165.5 21.4  46d   2
2019 12 04 08  03 43 01.698   +28 58 46.01  .03567 1.0202 165.4 21.4  46d   2
2019 12 04 09  03 42 46.826   +29 02 18.85  .03578 1.0203 165.3 21.4  46d   1
2019 12 04 10  03 42 32.040   +29 05 50.17  .03590 1.0204 165.2 21.5  46d   1
2019 12 04 11  03 42 17.341   +29 09 19.99  .03602 1.0205 165.1 21.5  46d   1
2019 12 04 12  03 42 02.727   +29 12 48.30  .03614 1.0206 165.0 21.5  46d   1
2019 12 04 13  03 41 48.198   +29 16 15.14  .03626 1.0207 164.9 21.5  46d   1
2019 12 04 14  03 41 33.754   +29 19 40.52  .03637 1.0207 164.8 21.5  46d   1
2019 12 04 15  03 41 19.393   +29 23 04.44  .03649 1.0208 164.7 21.5  46d   1
2019 12 04 16  03 41 05.116   +29 26 26.92  .03661 1.0209 164.6 21.5  46d   1
2019 12 04 17  03 40 50.922   +29 29 47.98  .03673 1.0210 164.5 21.5  46d   1
2019 12 04 18  03 40 36.809   +29 33 07.62  .03685 1.0211 164.4 21.5  46d   1
2019 12 04 19  03 40 22.779   +29 36 25.87  .03696 1.0212 164.3 21.6  46d   1
2019 12 04 20  03 40 08.830   +29 39 42.72  .03708 1.0213 164.2 21.6  46d   1
2019 12 04 21  03 39 54.961   +29 42 58.21  .03720 1.0214 164.1 21.6  46d   1
2019 12 04 22  03 39 41.172   +29 46 12.33  .03732 1.0215 164.0 21.6  46d   1
2019 12 04 23  03 39 27.463   +29 49 25.11  .03744 1.0216 163.9 21.6  46d   1
2019 12 05 00  03 39 13.832   +29 52 36.54  .03756 1.0217 163.8 21.6  46d   1
2019 12 05 01  03 39 00.280   +29 55 46.65  .03768 1.0217 163.7 21.6  46d   1
2019 12 05 02  03 38 46.806   +29 58 55.45  .03780 1.0218 163.6 21.6  46d   1
2019 12 05 03  03 38 33.410   +30 02 02.95  .03792 1.0219 163.5 21.6  46d   1
2019 12 05 04  03 38 20.090   +30 05 09.16  .03803 1.0220 163.4 21.6  46d   1
2019 12 05 05  03 38 06.847   +30 08 14.09  .03815 1.0221 163.3 21.7  46d   1
2019 12 05 06  03 37 53.679   +30 11 17.76  .03827 1.0222 163.2 21.7  46d   1
2019 12 05 07  03 37 40.587   +30 14 20.17  .03839 1.0223 163.1 21.7  46d   1
2019 12 05 08  03 37 27.570   +30 17 21.34  .03851 1.0224 163.0 21.7  46d   1
2019 12 05 09  03 37 14.627   +30 20 21.27  .03863 1.0225 162.9 21.7  46d   1
2019 12 05 10  03 37 01.758   +30 23 19.99  .03875 1.0226 162.8 21.7  46d   1
2019 12 05 11  03 36 48.963   +30 26 17.49  .03887 1.0226 162.7 21.7  46d   1
2019 12 05 12  03 36 36.241   +30 29 13.80  .03899 1.0227 162.6 21.7  46d   0
2019 12 05 13  03 36 23.591   +30 32 08.91  .03911 1.0228 162.5 21.7  46d   0
2019 12 05 14  03 36 11.013   +30 35 02.85  .03923 1.0229 162.4 21.7  46d   0
2019 12 05 15  03 35 58.506   +30 37 55.61  .03935 1.0230 162.3 21.8  46d   0
2019 12 05 16  03 35 46.071   +30 40 47.22  .03947 1.0231 162.2 21.8  46d   0
2019 12 05 17  03 35 33.706   +30 43 37.69  .03959 1.0232 162.1 21.8  46d   0
2019 12 05 18  03 35 21.412   +30 46 27.01  .03971 1.0233 162.1 21.8  46d   0
2019 12 05 19  03 35 09.187   +30 49 15.21  .03983 1.0234 162.0 21.8  46d   0
2019 12 05 20  03 34 57.032   +30 52 02.29  .03996 1.0235 161.9 21.8  46d   0
2019 12 05 21  03 34 44.945   +30 54 48.26  .04008 1.0235 161.8 21.8  46d   0
2019 12 05 22  03 34 32.927   +30 57 33.13  .04020 1.0236 161.7 21.8  46d   0